User: anonymous   Login
Location: Goheenville
(40.9070°N, 79.3720°W)
Time: 11:07:40
(UTC-05:00)
Language:

Cosmos 1727 Rocket - Orbit

View from above orbital plane
View from above orbital plane
View from above satellite
View from above satellite

Ground track
Ground track

The orbit data is extracted from the following two-line orbital elements,

1 16511U 86008B   15030.84221073  .00000077  00000-0  63557-4 0  6656
2 16511 082.9476 143.8716 0024681 185.4511 324.4321 13.75778240456871
Epoch (UTC): 30 January 2015 20:12:47
Eccentricity: 0.0024681
inclination: 82.9476°
perigee height: 961 km
apogee height: 997 km
right ascension of ascending node: 143.8716°
argument of perigee: 185.4511°
revolutions per day: 13.75778240
mean anomaly at epoch: 324.4321°
orbit number at epoch: 45687

The dashed part of the orbit path shows where the satellite is in the earth's shadow,  

DLR